Flag for U.S.A. Weather past 2 weeks in Toledo, Ohio, U.S.A.

57 °F

Drizzle. Mostly cloudy.

Feels Like: 55 °F
Forecast: 39 / 59 °F
Wind: 8 mph from Southwest

Location: Toledo Suburban Airport

Current Time: Nov 27, 2015 at 2:16:04 PM

Latest Report: Nov 27, 2015 at 1:55 PM

Visibility: 2 mi

Pressure: 30.23 "Hg

Humidity: 89%

Dew point: 54 °F

Location of ToledoLocation

Historic Weather in Toledo — Graph


Toledo temperature yesterday

Maximum temperature yesterday: 63 °F (at 2:55 PM)
Minimum temperature yesterday: 50 °F (at 5:54 AM)
Average temperature yesterday: 57 °F

Past Weeks' High & Low Weather Summary

High66 °F (Nov 15, 3:35 PM)93% (Nov 21, 8:41 AM)30.44 "Hg (Nov 21, 8:41 AM)
Low22 °F (Nov 22, 11:15 PM)28% (Nov 16, 1:54 PM)29.49 "Hg (Nov 12, 1:35 PM)
Average45 °F63%30.14 "Hg
* Reported Nov 12 1:35 PM — Nov 27 1:15 PM, Toledo, Weather by CustomWeather, © 2015

Note: Actual official high and low records may vary slightly from our data, if they occured in-between our weather recording intervals... More about our weather records


Toledo weather history for previous 24 hours

Time TempWeatherWind HumidityBarometerVisibility
1:15 PM
Fri, Nov 27
57 °FDrizzle. Mostly cloudy.8 mph88%30.24 "Hg7 mi
12:55 PM57 °FLight rain. Mostly cloudy.8 mph88%30.24 "Hg10 mi
12:34 PM57 °FRain. Mostly cloudy.8 mph88%30.24 "Hg5 mi
12:15 PM57 °FDrizzle. Overcast.8 mph89%30.25 "Hg10 mi
11:54 AM57 °FLight rain. Overcast.6 mph88%30.26 "Hg5 mi
11:35 AM57 °FLight rain. Mostly cloudy.10 mph88%30.26 "Hg7 mi
11:15 AM56 °FLight rain. Mostly cloudy.7 mph87%30.26 "Hg7 mi
10:54 AM56 °FLight rain. Mostly cloudy.10 mph87%30.26 "Hg7 mi
10:35 AM56 °FLight rain. Mostly cloudy.9 mph86%30.26 "Hg7 mi
10:14 AM57 °FLight rain. Mostly cloudy.9 mph83%30.25 "Hg7 mi
9:55 AM57 °FDrizzle. Cloudy.13 mph80%30.25 "Hg7 mi
9:35 AM57 °FDrizzle. Cloudy.13 mph77%30.25 "Hg10 mi
9:14 AM57 °FCloudy.13 mph75%30.24 "Hg10 mi
8:55 AM56 °FMore clouds than sun.14 mph78%30.24 "Hg10 mi
8:35 AM56 °FLight rain. Cloudy.10 mph81%30.24 "Hg10 mi
8:15 AM55 °FDrizzle. More clouds than sun.12 mph82%30.25 "Hg10 mi
7:55 AM55 °FLight rain. More clouds than sun.12 mph83%30.25 "Hg10 mi
7:34 AM56 °FRain. Overcast.9 mph82%30.26 "Hg10 mi
7:03 AM57 °FOvercast.9 mph78%30.26 "Hg10 mi
6:40 AM57 °FRain. Mostly cloudy.16 mph72%30.26 "Hg10 mi
6:21 AM59 °FLight rain. Mostly cloudy.13 mph68%30.26 "Hg10 mi
5:35 AM62 °FPassing clouds.13 mph56%30.25 "Hg10 mi
5:15 AM62 °FPassing clouds.14 mph55%30.25 "Hg10 mi
4:54 AM62 °FOvercast.12 mph55%30.25 "Hg10 mi
4:35 AM62 °FOvercast.13 mph54%30.24 "Hg10 mi
4:15 AM62 °FPassing clouds.10 mph54%30.25 "Hg10 mi
3:55 AM61 °FPassing clouds.12 mph55%30.25 "Hg10 mi
3:35 AM61 °FPassing clouds.10 mph54%30.26 "Hg10 mi
3:15 AM61 °FPassing clouds.10 mph53%30.26 "Hg10 mi
2:55 AM62 °FPassing clouds.12 mph52%30.27 "Hg10 mi
1:35 AM61 °FClear.15 mph50%30.27 "Hg10 mi
1:15 AM61 °FClear.13 mph50%30.28 "Hg10 mi
12:55 AM62 °FPassing clouds.14 mph49%30.28 "Hg10 mi
12:35 AM62 °FPartly cloudy.10 mph49%30.28 "Hg10 mi
11:55 PM
Thu, Nov 26
62 °FMostly cloudy.13 mph50%30.29 "Hg10 mi
10:55 PM62 °FPartly cloudy.16 mph49%30.29 "Hg10 mi
10:35 PM62 °FOvercast.15 mph49%30.30 "Hg10 mi
10:14 PM62 °FMostly cloudy.14 mph50%30.31 "Hg10 mi
9:55 PM62 °FMostly cloudy.16 mph50%30.32 "Hg10 mi
9:35 PM62 °FMostly cloudy.12 mph51%30.33 "Hg10 mi
9:14 PM61 °FMostly cloudy.12 mph52%30.33 "Hg10 mi
8:55 PM62 °FMostly cloudy.13 mph51%30.33 "Hg10 mi
8:35 PM62 °FPassing clouds.12 mph52%30.33 "Hg10 mi
8:14 PM61 °FPassing clouds.15 mph53%30.32 "Hg10 mi
7:55 PM61 °FPassing clouds.13 mph54%30.33 "Hg10 mi
7:35 PM60 °FPassing clouds.12 mph55%30.33 "Hg10 mi
6:55 PM60 °FPassing clouds.12 mph55%30.34 "Hg10 mi
6:35 PM60 °FPartly cloudy.13 mph55%30.34 "Hg10 mi
5:55 PM60 °FOvercast.13 mph57%30.34 "Hg10 mi
5:14 PM60 °FPassing clouds.9 mph59%30.34 "Hg10 mi
4:55 PM60 °FScattered clouds.10 mph59%30.34 "Hg10 mi
4:35 PM61 °FScattered clouds.10 mph58%30.34 "Hg10 mi
3:55 PM61 °FSunny.13 mph57%30.34 "Hg10 mi
3:35 PM62 °FScattered clouds.12 mph55%30.34 "Hg10 mi
3:14 PM62 °FMore clouds than sun.16 mph55%30.35 "Hg10 mi
2:55 PM63 °FMore clouds than sun.10 mph54%30.36 "Hg10 mi
2:35 PM62 °FPartly sunny.15 mph56%30.36 "Hg10 mi
Weather by CustomWeather, © 2015

See weather overviewHow to use our weather pages